Theta_e
319 324 325 326 326 326 327 330 331 332 335 338 345 347 349 348 345 341 345 345 347 347 345 338 336 335 334 333 332 332 332 333 333 333 331 329 327 326 327 329 331 331 330 330 330 330 330 330 329
320 323 325 325 327 329 326 329 329 336 337 338 338 339 346 347 345 342 344 344 344 344 343 337 336 335 334 333 332 332 332 333 333 334 333 332 330 328 327 327 328 329 330 330 330 329 329 329 328
323 324 326 328 329 327 328 329 336 335 335 334 336 339 340 342 340 339 342 343 342 341 337 336 336 335 334 334 333 332 333 333 334 334 333 333 332 331 329 328 327 327 329 329 333 332 329 327 327
324 325 326 327 327 328 329 333 333 333 333 333 335 338 334 330 339 339 341 343 342 340 337 336 336 335 334 334 334 333 334 334 334 334 334 334 333 333 333 331 329 328 328 329 329 330 328 327 326
324 325 327 329 326 328 330 331 330 330 331 331 334 339 334 336 337 337 339 339 339 340 337 336 336 335 336 336 335 334 334 334 334 334 334 333 333 333 334 333 332 331 330 330 329 330 329 329 327
324 326 326 328 328 327 327 329 329 329 329 333 337 335 332 338 333 335 336 337 337 338 337 336 338 339 338 339 338 337 336 335 334 334 334 334 333 333 332 333 334 334 332 331 331 330 329 329 330
324 327 328 327 328 326 326 327 328 329 328 329 331 336 331 332 337 332 334 337 337 337 338 340 339 337 337 336 337 337 337 336 336 336 335 334 334 332 332 332 332 333 332 332 332 331 331 329 329
325 326 326 327 328 327 326 327 327 328 327 327 330 333 334 335 337 330 333 338 339 340 340 339 337 336 335 335 333 331 331 332 335 335 335 336 335 335 334 333 334 333 333 332 331 331 332 332 330
324 326 326 326 327 327 325 326 325 326 326 328 332 334 333 336 330 328 326 323 328 333 333 334 334 332 329 327 323 320 320 319 321 322 325 329 329 327 330 330 332 332 333 333 332 331 331 331 331
325 326 326 328 327 326 325 325 325 326 326 327 328 330 330 329 329 327 324 320 320 324 326 327 326 324 314 310 308 307 306 306 306 306 306 306 307 307 307 312 316 318 321 322 328 333 333 333 335
324 325 326 327 324 326 325 324 325 326 327 326 327 328 329 328 327 323 319 317 317 317 317 314 311 309 308 306 306 307 306 307 307 307 307 306 307 306 305 306 306 310 314 316 309 311 316 322 332
324 324 324 325 324 324 325 324 324 326 327 326 326 327 326 324 321 318 316 314 313 311 309 308 307 306 306 306 307 307 308 307 308 308 307 306 306 305 304 304 304 307 306 306 306 306 310 316 318
324 324 324 324 323 322 323 324 323 325 325 325 325 324 323 320 318 316 314 312 311 309 307 306 305 306 306 306 306 306 306 307 306 306 306 305 304 303 303 302 303 305 304 303 302 302 303 304 309
323 323 323 323 323 322 323 323 323 323 323 322 322 321 319 317 315 313 312 311 310 309 305 305 305 306 306 306 306 307 305 305 305 304 304 303 302 302 302 302 302 303 302 302 303 303 304 303 304
323 323 322 323 322 322 322 322 323 323 321 320 320 319 317 316 314 313 311 310 309 307 305 304 305 305 305 306 306 306 304 304 304 303 303 302 302 302 301 301 303 302 301 302 304 304 303 302 302
323 323 323 323 323 323 322 322 324 322 320 319 319 318 316 314 313 311 310 309 308 307 304 304 305 305 305 305 305 304 303 303 303 302 302 301 301 301 301 301 302 301 302 303 304 303 302 301 301
325 325 325 325 325 324 323 322 323 322 320 320 319 317 315 313 312 310 309 308 308 306 304 304 304 305 305 304 303 304 303 303 303 302 301 300 300 299 299 300 300 300 300 301 302 301 301 301 301
326 327 326 326 326 324 323 322 323 322 321 320 319 317 315 313 311 310 308 307 307 305 304 303 304 303 303 302 305 304 303 303 302 301 300 299 298 298 298 298 299 299 298 299 299 299 299 300 301
324 326 326 327 328 324 324 324 323 322 321 321 320 318 316 314 312 309 308 307 306 304 303 303 303 302 302 302 302 301 301 302 302 301 300 299 298 297 297 297 297 297 297 298 298 298 298 298 298
324 324 325 326 326 323 323 323 323 323 322 321 321 319 317 315 312 309 307 307 306 305 303 302 302 301 302 301 301 300 300 301 302 300 301 300 299 298 298 297 298 298 298 298 297 295 296 296 296
323 323 323 324 325 321 321 321 322 323 322 321 320 320 318 316 312 309 308 307 306 304 303 303 302 301 300 301 300 300 301 301 301 299 300 298 299 299 299 298 298 297 298 298 296 295 295 295 296
322 321 322 322 324 326 321 320 321 323 322 322 320 320 319 317 312 309 308 307 306 305 303 303 302 301 300 299 299 299 299 299 298 298 298 297 299 298 298 298 297 296 296 296 293 292 294 294 294
322 321 319 320 322 322 322 322 321 321 323 322 321 320 319 317 313 310 308 307 306 305 303 302 301 300 299 299 299 298 298 297 297 297 297 298 297 298 297 295 295 295 293 292 292 292 293 293 292
321 321 319 319 320 321 321 322 322 322 322 322 321 320 319 317 314 311 309 307 306 304 303 302 301 300 299 299 299 298 298 297 297 297 297 296 296 297 296 296 294 293 292 293 291 291 291 291 291
321 320 320 322 321 321 320 321 322 322 322 323 321 319 318 317 314 312 309 307 305 304 303 302 301 300 299 298 298 298 297 296 296 296 296 295 296 295 295 294 293 291 292 291 291 289 290 290 290
321 320 323 323 325 324 323 322 321 321 319 320 320 319 318 316 314 312 310 308 305 304 304 302 301 300 299 298 297 297 296 295 295 295 294 295 295 294 293 293 292 290 291 291 290 289 290 289 289
318 320 319 321 322 323 322 322 321 318 317 316 316 319 317 316 314 312 310 308 306 305 303 301 300 299 299 298 297 296 295 294 294 294 294 294 294 293 293 292 290 289 290 290 289 289 289 288 287
317 318 321 320 322 323 322 322 323 320 317 316 316 318 317 315 314 312 311 308 306 304 303 301 300 299 298 297 296 295 294 294 293 293 294 293 292 292 291 291 290 289 289 288 288 287 287 286 286
317 316 318 319 320 321 322 321 319 319 319 316 316 316 316 315 314 312 311 309 306 304 302 301 299 298 298 296 295 294 294 293 293 293 292 292 291 291 290 290 289 288 287 287 286 286 286 284 284
316 318 317 318 318 319 321 320 319 318 318 316 315 315 315 315 314 312 310 308 305 303 301 300 299 298 297 295 295 294 293 292 292 292 291 291 291 290 290 289 288 287 286 286 286 286 284 283 283
Wind_Speed
9 10 11 9 6 8 16 5 12 9 7 17 25 29 27 24 8 10 10 7 8 13 4 6 5 4 3 3 4 4 4 4 4 5 6 7 8 8 8 7 6 6 7 8 8 8 8 9 10
9 4 8 10 8 12 9 13 7 15 15 14 14 23 18 11 18 13 14 14 5 3 1 7 5 4 3 3 3 3 3 3 3 3 5 5 6 6 7 7 8 8 7 7 8 9 9 10 11
9 5 10 5 12 14 6 9 19 19 15 12 10 18 10 7 12 9 15 12 6 3 7 6 4 3 3 3 2 2 2 3 3 4 5 6 6 6 6 7 8 8 9 9 9 10 10 11 12
7 12 11 9 19 5 8 15 17 12 7 12 19 12 11 7 9 13 13 12 5 5 8 7 5 4 4 4 4 4 4 4 4 5 6 7 7 8 8 8 8 9 10 11 12 12 12 13 13
12 12 12 17 18 9 8 15 13 13 9 8 20 9 9 10 20 12 14 12 6 6 9 7 5 5 5 4 4 4 4 5 6 7 7 8 9 9 10 10 10 9 10 10 11 12 13 14 14
17 20 13 15 8 11 3 8 12 15 11 18 18 12 7 13 14 13 12 13 12 9 7 8 6 6 6 6 5 5 4 5 5 6 6 7 8 9 9 11 12 12 12 12 12 13 13 13 14
15 11 17 20 11 8 7 6 7 16 14 10 10 8 9 12 15 14 11 10 9 8 8 7 6 5 6 6 7 7 7 6 5 5 6 7 8 9 10 11 13 14 15 15 16 16 17 17 15
16 11 20 18 6 6 12 6 4 11 13 7 8 7 12 18 15 13 10 9 8 7 6 6 5 6 6 6 6 6 6 7 8 9 8 7 9 9 10 10 14 15 16 16 16 17 17 19 19
12 9 13 19 10 11 17 11 11 12 16 14 10 20 26 22 19 15 12 9 6 6 5 6 7 7 7 6 7 8 8 8 8 8 7 8 7 9 8 9 10 12 13 16 17 18 19 19 21
8 10 18 14 4 16 16 14 10 10 14 15 18 19 23 22 19 16 12 10 7 7 8 8 8 7 7 7 7 8 8 9 10 11 10 9 9 10 10 8 9 10 16 15 14 17 17 17 17
14 13 17 11 16 7 15 15 17 15 13 18 21 22 21 20 17 15 13 10 8 9 9 9 8 6 7 8 9 8 8 8 9 11 12 12 13 13 13 13 11 10 10 13 15 13 16 18 19
14 16 16 19 3 5 8 13 9 9 10 26 23 23 21 19 16 15 13 11 10 9 9 9 8 7 7 7 6 6 7 9 11 13 14 14 16 15 16 16 15 14 17 17 19 17 15 15 17
7 14 16 13 3 7 13 10 12 15 15 22 23 21 20 18 16 14 14 12 10 9 10 10 9 8 6 5 5 6 8 10 12 13 14 15 17 18 19 18 17 16 19 20 21 20 21 20 19
14 13 17 9 11 12 12 9 14 18 17 19 21 21 19 17 16 15 14 12 10 10 9 9 8 7 4 3 4 6 7 9 11 14 17 18 18 18 18 17 17 19 20 20 21 22 21 22 22
19 12 15 16 17 16 14 16 16 24 21 20 20 19 18 18 16 15 14 13 11 9 10 8 7 5 3 1 2 4 6 8 10 13 16 17 20 21 20 18 19 21 19 18 18 20 21 22 24
12 16 16 18 20 21 18 18 20 30 26 22 21 20 19 18 17 14 14 13 11 10 10 9 7 5 3 1 2 5 6 8 10 12 15 16 18 18 18 16 19 22 20 17 19 20 23 23 24
14 15 18 20 22 17 20 17 8 29 27 24 23 21 21 20 17 16 14 13 11 10 10 9 6 4 2 0 3 7 10 10 11 13 16 18 19 20 19 16 18 19 18 18 20 23 24 26 26
13 18 17 17 12 18 19 17 17 25 25 26 24 24 23 21 19 17 15 13 11 12 10 8 7 4 2 3 5 4 5 9 10 13 16 17 17 18 18 17 18 19 19 20 21 22 21 22 24
19 21 18 16 20 19 15 17 20 26 26 24 27 26 25 22 20 19 17 14 11 10 10 9 7 5 3 2 1 2 4 5 7 11 14 17 19 17 16 17 18 19 19 19 20 23 24 24 26
18 19 20 19 19 10 14 17 18 23 24 28 29 29 29 26 25 21 18 16 12 13 11 9 8 6 6 1 1 4 6 7 9 12 11 16 18 20 19 20 20 20 22 23 24 22 25 25 26
17 17 18 19 20 14 9 17 18 21 28 28 28 29 30 30 29 24 20 18 16 14 13 10 9 7 5 5 1 4 4 3 6 9 10 16 15 16 18 18 18 20 15 21 26 23 24 24 25
17 16 17 18 17 14 14 12 17 19 23 20 26 29 31 32 31 27 23 19 16 15 14 12 9 5 5 3 2 3 3 4 8 10 12 13 13 14 13 16 18 18 17 19 22 22 21 23 21
19 15 10 16 14 17 21 13 12 15 20 21 21 28 29 31 31 28 25 21 18 16 14 13 11 7 5 2 1 2 4 6 7 10 12 10 13 11 17 19 18 20 20 23 23 22 21 20 23
14 14 11 15 12 16 17 16 16 15 16 22 22 27 28 30 31 29 26 23 20 17 16 13 9 8 5 2 1 3 6 7 8 10 10 12 11 12 14 17 21 21 16 19 22 23 20 19 21
16 11 6 9 10 13 14 15 16 10 8 21 21 28 31 29 32 31 29 27 24 19 15 14 11 8 5 3 2 4 6 7 8 9 10 12 10 12 14 20 23 20 16 19 21 23 20 20 21
21 16 9 9 12 14 17 19 17 5 12 12 20 34 34 32 33 31 30 29 24 19 17 13 13 10 5 3 2 4 6 6 5 9 9 8 10 10 15 19 22 20 14 19 22 20 19 22 24
22 19 17 16 18 11 11 16 4 6 9 6 7 27 33 33 32 32 30 30 25 23 19 16 13 10 7 3 2 3 5 7 7 8 7 8 9 10 12 19 22 18 14 20 18 19 20 23 21
21 15 14 11 13 18 16 15 11 10 14 10 7 19 28 31 31 33 31 30 28 24 20 17 13 11 9 6 4 4 6 7 7 6 7 8 11 11 15 18 17 19 17 18 17 20 23 20 24
12 16 16 10 12 9 9 8 6 11 7 10 9 14 23 27 31 31 30 30 29 23 21 18 15 12 10 7 5 5 6 6 5 5 8 10 11 11 14 16 17 19 17 18 18 21 18 25 26
13 12 15 5 12 7 9 17 3 7 4 14 16 19 24 27 29 30 31 34 27 26 20 19 16 12 9 7 4 4 5 5 5 6 7 11 10 11 12 14 19 17 16 17 19 20 24 30 33
Wind_Direction
310 336 334 294 243 228 257 132 86 74 43 54 63 84 83 49 99 132 125 114 94 97 83 132 115 98 74 58 49 47 34 23 14 10 8 8 359 4 3 359 356 1 356 355 351 350 352 349 342
322 329 262 273 248 253 246 107 106 93 80 77 88 76 74 75 77 86 116 81 100 156 123 114 105 99 78 46 36 30 20 359 350 344 346 346 346 352 349 349 346 342 343 344 339 339 341 340 335
323 336 280 227 238 252 73 120 100 105 127 96 72 60 51 72 79 93 97 81 83 102 109 93 84 71 63 60 36 15 345 334 330 323 322 321 322 326 333 340 340 333 326 331 329 328 332 332 329
306 268 246 249 252 62 80 92 103 121 150 103 104 80 78 61 109 93 92 115 121 59 95 90 75 58 42 23 8 356 341 327 317 315 316 318 322 325 325 327 325 325 324 322 320 323 324 325 324
265 266 255 261 258 72 63 105 142 160 123 128 109 89 84 102 112 105 114 120 114 112 110 104 90 67 41 23 9 358 346 333 328 324 319 318 320 321 320 317 312 307 305 306 309 311 314 317 317
279 243 265 261 210 95 73 120 180 125 121 90 89 100 95 129 120 111 131 145 134 117 127 126 110 82 62 53 42 23 5 346 334 329 324 319 316 315 315 310 306 296 294 298 297 297 297 301 306
256 282 273 281 105 131 132 197 222 126 115 62 140 91 130 143 133 123 122 125 127 123 123 123 110 94 85 68 60 49 35 18 2 345 337 332 325 323 319 309 300 304 301 300 300 301 302 298 294
293 289 281 277 165 157 134 168 202 145 104 107 17 152 155 154 135 121 116 108 112 121 131 133 117 95 76 74 59 38 24 9 7 5 5 357 340 332 316 321 317 315 307 303 299 297 298 299 298
273 272 269 262 235 146 138 153 50 83 103 79 65 101 140 140 137 127 109 79 87 112 118 109 105 101 86 73 53 42 28 17 20 16 5 359 1 348 342 344 332 325 317 304 300 302 300 297 290
242 268 268 344 140 132 147 163 153 127 121 112 101 110 130 138 141 137 131 119 119 118 116 119 121 118 94 85 75 67 64 54 50 42 31 25 10 2 356 338 335 346 358 334 305 291 288 290 296
252 258 289 329 6 107 156 182 161 171 183 162 143 139 142 146 147 139 128 127 132 128 128 127 123 116 105 91 86 75 52 39 29 23 11 5 353 352 346 342 345 347 304 306 318 327 320 310 291
251 267 286 300 59 301 171 195 167 65 51 146 142 142 144 145 144 141 134 127 128 132 129 127 122 111 103 98 76 51 32 16 0 355 353 347 340 343 341 339 340 332 316 324 323 327 312 307 314
235 267 275 264 74 269 270 200 176 105 108 130 140 144 148 148 145 145 141 137 138 138 139 136 131 127 117 96 71 42 15 1 351 341 339 338 335 336 338 337 335 328 319 323 325 322 322 317 310
271 303 285 233 229 237 249 227 142 138 143 144 149 150 151 153 152 148 145 140 144 149 143 143 151 147 130 86 33 5 356 342 335 332 330 337 336 335 337 334 330 317 333 330 330 325 322 315 313
265 266 261 252 247 224 207 241 195 162 165 163 162 160 158 159 158 157 154 149 152 155 153 155 155 152 143 96 350 341 341 333 333 334 327 337 333 336 340 342 329 325 330 331 326 318 316 317 315
262 253 253 248 225 232 187 232 209 163 171 174 172 167 165 166 164 161 156 151 151 161 166 169 162 162 163 248 328 333 349 350 340 337 331 338 335 338 340 339 327 333 337 338 324 321 321 321 320
248 249 248 243 243 200 207 232 169 162 175 179 180 177 173 169 169 166 161 157 157 164 169 168 166 168 192 5 10 6 2 356 347 339 340 343 343 343 345 342 331 332 332 328 324 325 330 329 326
241 237 232 255 242 196 204 217 163 177 184 185 184 185 182 178 178 171 165 163 171 169 168 167 169 172 137 70 82 337 8 342 343 341 343 339 341 339 340 336 334 331 333 329 328 324 326 327 322
267 285 288 291 294 191 226 217 179 184 192 194 189 190 188 184 181 174 173 165 168 163 167 174 173 160 147 137 131 340 4 352 342 342 345 332 337 338 339 334 332 329 334 329 321 322 322 325 325
257 264 266 272 275 200 221 232 242 180 197 200 194 193 189 183 178 177 176 176 174 173 175 173 178 171 152 166 9 18 14 13 353 337 351 324 342 344 346 343 342 339 341 331 321 326 330 330 338
258 263 270 270 269 199 238 257 252 185 195 206 207 198 192 186 177 181 182 183 184 180 172 174 180 175 144 120 34 37 49 26 305 344 334 338 343 342 343 339 331 335 339 327 326 336 336 336 337
265 258 263 260 267 259 193 258 235 221 189 197 206 201 193 186 179 182 184 187 183 185 169 173 168 166 151 146 30 21 20 346 343 330 320 345 331 346 330 317 325 334 326 314 325 332 339 336 330
255 283 292 293 257 271 257 263 256 264 201 189 200 204 194 185 177 180 185 188 188 192 174 180 167 173 170 155 69 346 336 334 327 325 332 336 326 328 319 332 333 319 327 320 329 334 334 335 323
258 258 265 265 263 254 247 256 251 245 241 183 193 199 192 182 177 182 185 188 188 190 189 174 170 176 174 193 308 325 327 331 330 330 337 319 344 323 333 314 315 323 335 340 333 335 336 330 326
226 222 248 222 227 251 240 237 240 262 285 186 183 187 187 184 176 178 181 183 186 192 187 174 175 184 186 205 287 328 326 336 341 325 319 336 330 329 317 320 319 330 338 333 327 336 342 333 323
227 214 217 212 237 250 249 239 254 108 82 123 187 185 178 178 175 179 183 184 189 187 189 175 175 183 193 207 287 314 329 330 332 310 327 340 319 325 326 313 319 330 345 326 328 336 332 321 317
237 219 238 267 278 281 267 282 289 113 138 161 190 168 170 173 176 180 186 185 190 185 187 182 179 184 187 207 258 297 316 322 322 326 334 311 317 325 317 318 322 336 332 320 336 330 319 317 328
222 251 230 220 255 250 257 259 260 202 184 171 199 160 165 172 180 182 184 183 187 183 185 185 176 182 188 196 240 272 310 315 325 333 313 321 315 344 323 324 335 324 315 322 329 327 325 326 317
206 233 245 250 223 245 255 254 97 35 140 166 192 177 168 177 182 179 181 180 182 179 185 187 180 181 191 212 251 294 307 314 323 316 320 313 340 326 329 331 317 317 330 331 335 329 333 324 331
263 248 231 215 245 259 243 254 348 96 100 173 185 179 180 184 184 180 180 177 176 179 184 184 187 190 212 226 257 287 307 319 320 317 326 326 338 334 335 322 318 336 332 340 338 322 324 333 333